#timestamp,LO_Frequency,Hit 
1500213615.3,286046973.2,N
1500213635.1,286046973.9,N
1500213655.9,286046971.8,N
1500213675.7,286046969.9,N
1500213695.5,286046968.5,N
1500213715.3,286046966.4,N
1500213735.2,286046968.4,N
1500213755.0,286046967.8,N
1500213755.9,286046967.8,N
1500213775.7,286046966.6,N
1500213795.6,286046969.2,N
1500213815.4,286046967.0,N
1500213835.2,286046967.0,N
1500213855.1,286046966.7,N
1500213856.0,286046966.7,N
1500213875.8,286046964.9,N
1500213895.6,286046963.0,N
1500213915.5,286046963.7,N
1500213935.3,286046961.8,N
1500213955.1,286046961.6,N
1500213975.9,286046962.1,N
1500213995.7,286046961.0,N
1500214015.5,286046958.1,N
1500214035.4,286046958.3,N
1500214055.2,286046961.1,N
1500214075.0,286046958.7,N
1500214075.9,286046958.7,N
1500214095.8,286046957.5,N
1500214115.6,286046953.3,N
1500214135.4,286046956.1,N
1500214155.3,286046956.0,N
1500214175.1,286046953.9,N
1500214176.0,286046953.9,N
1500214195.8,286046953.6,N
1500214215.7,286046953.5,N
1500214235.5,286046954.6,N
1500214255.3,286046950.2,N
1500214275.2,286046950.5,N
1500214295.9,286046951.4,N
1500214315.7,286046950.9,N
1500214335.5,286046951.0,N
1500214355.4,286046951.0,N
1500214375.2,286046950.3,N
1500214395.0,286046954.7,N
1500214395.9,286046954.7,N
1500214415.8,286046955.0,N
1500214435.6,286046954.5,N
1500214455.4,286046956.5,N
1500214475.3,286046961.5,N
1500214495.1,286046968.5,N
1500214515.8,286046972.3,N
1500214535.7,286046968.6,N
1500214555.5,286046967.5,N
1500214575.3,286046975.5,N
1500214595.2,286046989.7,N
1500214615.9,286046985.4,N
1500214635.7,286046983.8,N
1500214655.6,286046990.5,N
1500214675.4,286046989.5,N
1500214695.2,286046983.8,N
1500214715.1,286046979.5,N
1500214716.0,286046979.5,N
1500214735.8,286046973.2,N
1500214755.6,286046967.9,N
1500214775.5,286046968.8,N
1500214795.3,286046967.7,N
1500214815.1,286046966.8,N
1500214835.9,286046965.9,N
1500214855.7,286046958.3,N
1500214875.5,286046957.2,N
1500214895.3,286046958.9,N
1500214915.2,286046957.1,N
1500214935.0,286046962.2,N
1500214935.9,286046962.2,N
1500214955.7,286046962.5,N
1500214975.6,286046963.7,N
1500214995.4,286046977.6,N
1500215015.2,286046974.4,N
1500215035.1,286046977.5,N
1500215036.0,286046977.5,N
1500215055.8,286046972.8,N
1500215075.6,286046973.2,N
1500215095.5,286046966.5,N
1500215115.4,286046962.9,N
1500215135.3,286046961.8,N
1500215155.1,286046958.3,N
1500215156.0,286046958.3,N
1500215175.8,286046958.8,N
1500215195.6,286046957.4,N
1500215215.5,286046956.5,N
1500215235.3,286046955.8,N
1500215255.1,286046956.0,N
1500215275.9,286046957.2,N
1500215295.7,286046956.8,N
1500215315.5,286046958.5,N
1500215335.4,286046958.4,N
1500215355.2,286046960.0,N
1500215375.0,286046965.2,N
1500215375.9,286046965.2,N
1500215395.8,286046965.3,N
1500215415.6,286046971.2,N
1500215435.4,286046964.1,N
1500215455.3,286046959.1,N
1500215475.1,286046954.3,N
1500215476.0,286046954.3,N
1500215495.8,286046951.1,N
1500215515.7,286046949.4,N
1500215535.5,286046945.5,N
1500215555.3,286046946.5,N
1500215575.2,286046944.5,N
1500215595.9,286046942.3,N
1500215615.7,286046942.2,N
1500215635.6,286046942.9,N
1500215655.4,286046942.5,N
1500215675.2,286046949.1,N
1500215695.0,286046952.8,N
1500215696.0,286046952.8,N
1500215715.8,286046950.9,N
1500215735.6,286046950.4,N
1500215755.4,286046953.7,N
1500215775.3,286046952.6,N
1500215795.1,286046946.1,N
1500215815.8,286046943.7,N
1500215835.7,286046944.0,N
1500215855.5,286046944.0,N
1500215875.3,286046945.9,N
1500215895.2,286046947.9,N
1500215915.9,286046948.2,N
1500215935.7,286046946.5,N
1500215955.6,286046944.0,N
1500215975.4,286046943.0,N
1500215995.2,286046939.0,N
1500216015.0,286046942.8,N
1500216016.0,286046942.8,N
1500216035.8,286046945.9,N
1500216055.6,286046959.6,N
1500216075.4,286046968.5,N
1500216095.3,286046963.6,N
1500216115.1,286046964.2,N
1500216135.8,286046967.9,N
1500216155.7,286046969.3,N
1500216175.5,286046976.3,N
1500216195.3,286046978.5,N
1500216215.2,286046970.6,N
1500216235.0,286046967.8,N
1500216235.9,286046967.8,N
1500216255.7,286046972.0,N
1500216275.6,286046968.8,N
1500216295.4,286046963.6,N
1500216315.2,286046963.7,N
1500216335.1,286046969.6,N
1500216336.0,286046969.6,N
1500216355.8,286046978.6,N
1500216375.6,286046971.7,N
1500216395.5,286046971.2,N
1500216415.3,286046975.3,N
1500216435.1,286046969.8,N
1500216455.9,286046971.6,N
1500216475.7,286046974.9,N
1500216495.5,286046977.7,N
1500216515.4,286046979.7,N
1500216535.2,286046974.6,N
1500216555.0,286046969.2,N
1500216555.9,286046969.2,N
1500216575.8,286046964.4,N
1500216595.6,286046959.8,N
1500216615.4,286046957.1,N
1500216635.2,286046956.9,N
1500216655.1,286046965.4,N
1500216656.0,286046965.4,N
1500216675.8,286046972.4,N
1500216695.6,286046967.7,N
1500216715.5,286046965.8,N
1500216735.3,286046961.4,N
1500216755.1,286046959.6,N
1500216775.9,286046955.2,N
1500216795.7,286046954.0,N
1500216815.5,286046954.8,N
1500216835.4,286046966.0,N
1500216855.2,286046964.7,N
1500216875.0,286046965.2,N
1500216875.9,286046965.2,N
1500216895.8,286046965.1,N
1500216915.6,286046966.1,N
1500216935.4,286046963.3,N
1500216955.3,286046962.0,N
1500216975.1,286046959.1,N
1500216976.0,286046959.1,N
1500216995.8,286046953.6,N
1500217015.6,286046951.7,N
1500217035.5,286046953.4,N
1500217055.3,286046952.0,N
1500217075.1,286046960.3,N
1500217095.9,286046969.6,N
1500217115.7,286046974.6,N
1500217135.5,286046975.7,N
1500217155.4,286046982.1,N
1500217175.2,286046984.6,N
1500217195.0,286046987.6,N
1500217195.9,286046987.6,N
